TW-1A
1 40928U 15051D 21329.72950598 .00009646 00000-0 18235-3 0 9994
2 40928 97.0640 350.8998 0010700 66.0599 44.2781 15.48551959346625
IO-86
1 40931U 15052B 21328.13936117 .00000720 00000-0 11236-4 0 9993
2 40931 5.9987 193.4939 0012596 144.0043 216.0931 14.76706186332943
ATHENOXAT-1
1 41168U 15077C 21329.78738258 .00003677 00000-0 14663-3 0 9991
2 41168 14.9860 154.1029 0010297 267.7644 199.7232 15.16724240329309
ChubuSat-2
1 41338U 16012B 21329.44058672 .00000592 00000-0 38856-4 0 9992
2 41338 31.0026 242.0947 0013728 288.9568 70.9580 15.00702489316801
ChubuSat-3
1 41339U 16012C 21329.78097080 .00000582 00000-0 37927-4 0 9993
2 41339 31.0114 236.9998 0013669 301.3469 58.5837 15.00836408316853
Horyu-4
1 41340U 16012D 21329.37403873 .00000924 00000-0 61923-4 0 9994
2 41340 31.0040 221.0905 0013751 330.4824 29.5034 15.02178695317000
e-st@r-II
1 41459U 16025D 21329.86019032 .00004604 00000-0 22171-3 0 9993
2 41459 98.1642 116.0374 0156022 237.9816 120.6169 15.09196337306759
AAUSAT4
1 41460U 16025E 21329.66841651 .00007805 00000-0 35029-3 0 9995
2 41460 98.1602 120.5746 0141924 219.7220 139.3495 15.12845358307075
LO-87
1 41557U 16033B 21329.89205468 .00003344 00000-0 11561-3 0 9995
2 41557 97.3931 63.0217 0013139 28.6538 109.7325 15.30538812306219
NuSat2
1 41558U 16033C 21329.73935516 .00003505 00000-0 11342-3 0 9999
2 41558 97.4081 67.4722 0012096 21.9455 131.7677 15.32667429306417
Lapan A3
1 41603U 16040E 21329.88384852 .00000283 00000-0 16088-4 0 9998
2 41603 97.2356 10.5079 0014116 149.5208 23.3267 15.20175418301104
Pratham
1 41783U 16059A 21329.58213249 .00000109 00000-0 29909-4 0 9998
2 41783 97.9438 13.9934 0034864 97.6000 262.9165 14.63193333275811
TY-1
1 41844U 16066D 21329.69804410 .00002108 00000-0 83549-4 0 9993
2 41844 97.3964 338.2917 0012632 293.0194 178.2845 15.26450000280497
CAS-2T
1 41847U 16066G 21329.53020365 .00000191 00000-0 37896-4 0 9992
2 41847 98.5813 29.1647 0366016 99.4376 264.8374 14.38289876265035
EO-88
1 42017U 17008BX 21329.45227774 .00003852 00000-0 13742-3 0 9993
2 42017 97.2979 34.1239 0004193 250.0965 109.9824 15.29471650265854
CAS-4B
1 42759U 17034B 21329.60029840 .00000996 00000-0 72525-4 0 9997
2 42759 43.0188 14.9535 0006870 87.1191 44.9500 15.10563540245517
CAS-4A
1 42761U 17034D 21329.65048325 .00001004 00000-0 72830-4 0 9994
2 42761 43.0193 13.6164 0007025 91.1265 54.0871 15.10650539245529
NIUSat
1 42766U 17036B 21329.54216423 .00002184 00000-0 94235-4 0 9998
2 42766 97.2307 9.8115 0013813 334.0501 26.0043 15.23484468245732
Aalto 1
1 42775U 17036L 21329.59240950 .00001798 00000-0 78540-4 0 9996
2 42775 97.2271 10.0127 0012417 333.7758 26.2849 15.23295065245726
URSA MAIOR
1 42776U 17036M 21329.36698888 .00001923 00000-0 82998-4 0 9991
2 42776 97.2285 10.3605 0012189 333.8420 26.2201 15.23622884245713
Max Valier Sat
1 42778U 17036P 21329.50475795 .00002088 00000-0 88068-4 0 9996
2 42778 97.2353 12.7198 0010682 335.7842 24.2892 15.24336553245810
Pegasus
1 42784U 17036V 21329.54356575 .00002648 00000-0 10775-3 0 9992
2 42784 97.2302 13.3375 0010353 338.7312 21.3494 15.25322254245905
NUDATSat
1 42787U 17036Y 21329.58415262 .00004225 00000-0 15806-3 0 9991
2 42787 97.2346 16.3716 0009697 331.4615 28.6090 15.27810050245925
SUCHAI 1
1 42788U 17036Z 21329.38469053 .00003060 00000-0 12045-3 0 9995
2 42788 97.2309 14.4019 0009736 335.8629 24.2152 15.26325289246024
SKCUBE
1 42789U 17036AA 21329.57667070 .00003055 00000-0 12153-3 0 9990
2 42789 97.2305 14.2152 0009653 335.8857 24.1929 15.25975378245959
VZLUSAT 1
1 42790U 17036AB 21329.58189443 .00004262 00000-0 15969-3 0 9995
2 42790 97.2338 16.3537 0008744 330.0567 30.0172 15.27759157246079
VENTA 1
1 42791U 17036AC 21329.56685550 .00002665 00000-0 10682-3 0 9996
2 42791 97.2302 14.1931 0009373 337.2045 22.8776 15.25830130245947
Robusta 1B
1 42792U 17036AD 21329.58347058 .00003121 00000-0 12303-3 0 9997
2 42792 97.2307 14.6694 0009268 336.4230 23.6583 15.26266774245992
D-SAT
1 42794U 17036AF 21329.48660958 .00000581 00000-0 54566-4 0 9990
2 42794 97.4556 340.7895 0126225 48.1795 313.0122 14.91787868241066
TechnoSat
1 42829U 17042E 21329.61765304 .00000362 00000-0 41443-4 0 9999
2 42829 97.4433 190.3808 0013466 335.0025 25.0540 14.91410482237703
QIKCOM-1
1 42983U 98067NF 21329.81824513 .00015909 00000-0 12649-3 0 9994
2 42983 51.6335 157.1932 0003238 222.5219 137.5529 15.71412761232732
AO-91
1 43017U 17073E 21329.47567400 .00000841 00000-0 68908-4 0 9991
2 43017 97.6923 226.9714 0254542 134.5558 227.6751 14.79964718216934
EcAMSat
1 43019U 98067NG 21329.73821813 .00372369 80863-4 36281-3 0 9999
2 43019 51.6339 98.5154 0006250 308.9453 51.1004 16.10892920315821
PICSAT
1 43132U 18004X 21329.46800798 .00003374 00000-0 13025-3 0 9996
2 43132 97.3951 42.5329 0008759 11.3258 348.8176 15.26937663215242
AO-92
1 43137U 18004AC 21329.48572937 .00002537 00000-0 10108-3 0 9993
2 43137 97.3924 41.8144 0008699 14.3422 345.8061 15.26115557215210
TianYi 2
1 43155U 18008A 21329.74287494 .00001589 00000-0 93196-4 0 9992
2 43155 97.3830 29.7427 0018248 127.5065 20.8705 15.13036461212456
Zhou Enlai
1 43156U 18008B 21329.77919244 .00002316 00000-0 13559-3 0 9994
2 43156 97.3882 29.6217 0015432 127.0205 357.1144 15.12689900212390
TianYi 6
1 43158U 18008D 21329.65876426 .00001702 00000-0 10249-3 0 9998
2 43158 97.3814 27.8389 0014306 126.1508 24.9990 15.12024032212298
S-Net D
1 43186U 18014G 21329.69760852 .00000956 00000-0 87487-4 0 9994
2 43186 97.6683 234.2860 0009023 260.6599 99.3602 14.97245600208422
S-Net B
1 43187U 18014H 21329.56392933 .00000969 00000-0 88671-4 0 9992
2 43187 97.6679 234.1152 0009023 261.0517 98.9683 14.97244711208400
S-Net A
1 43188U 18014J 21329.56410078 .00000969 00000-0 88635-4 0 9994
2 43188 97.6683 234.1677 0009013 261.1755 98.8446 14.97243665208405
S-Net C
1 43189U 18014K 21329.49778341 .00000937 00000-0 85866-4 0 9995
2 43189 97.6679 234.0414 0009010 261.3620 98.6581 14.97243147206949
FMN 1
1 43192U 18015A 21329.75094324 .00006189 00000-0 21527-3 0 9999
2 43192 97.5101 106.3297 0014199 36.6749 70.6349 15.29993241212235
Shaonian Xing
1 43199U 18015H 21329.78829811 .00004183 00000-0 15131-3 0 9992
2 43199 97.4889 102.8724 0016105 46.3338 59.6424 15.28883649212286
SurfSat
1 43614U 18070B 21329.56063525 .00007113 00000-0 15309-3 0 9996
2 43614 93.0252 13.2111 0016156 96.5219 263.7878 15.44500241179511
CP-7 DAVE
1 43615U 18070C 21329.54790494 .00006383 00000-0 13924-3 0 9996
2 43615 93.0256 13.1373 0016364 96.8725 263.4394 15.44104834179496
ELFIN-B
1 43616U 18070D 21329.58904755 .00010296 00000-0 19259-3 0 9993
2 43616 93.0204 13.5977 0015605 92.5302 267.7744 15.48571498179679
ELFIN-A
1 43617U 18070E 21329.55307627 .00012776 00000-0 23263-3 0 9991
2 43617 93.0259 14.5990 0014810 90.1695 270.1262 15.49343101179696
CubeBel-1
1 43666U 18083E 21329.90257124 .00002285 00000-0 10874-3 0 9992
2 43666 97.4426 356.1944 0013318 331.7753 150.0177 15.20115953170535
Changshagaoxin
1 43669U 18083H 21329.69833141 .00002155 00000-0 10663-3 0 9992
2 43669 97.4342 352.5799 0009600 331.9830 165.1849 15.18852043170358
Ten-Koh
1 43677U 18084G 21329.57159005 .00000476 00000-0 54481-4 0 9990
2 43677 97.9400 93.2270 0015131 219.9587 140.0518 14.90598241167302
PO-101
1 43678U 18084H 21329.83560296 -.00000130 00000-0 -71286-5 0 9990
2 43678 97.9449 96.1583 0008668 234.2850 125.7585 14.91834314167494
